EW4496 Weather Reports


time (UTC)temp
C
wind
direction
speed
KPH
gust
KPH
rain 1hr
cm
rain 24hr
cm
rain mn
cm
humidity
%
barometer
mb
20260509171550 21 307 0.0 1.6 0.00 0.00 0.00 65 1013.5
20260509170049 21 219 0.0 0.0 0.00 0.00 0.00 67 1013.7
20260509164548 20 292 0.0 0.0 0.00 0.00 0.00 69 1013.6
20260509163052 20 318 0.0 1.6 0.00 0.00 0.00 69 1013.7
20260509161558 19 176 0.0 0.0 0.00 0.00 0.00 70 1013.7
20260509160021 18 335 0.0 0.0 0.00 0.00 0.00 73 1013.8
20260509154518 17 192 0.0 0.0 0.00 0.00 0.00 74 1013.7
20260509153031 17 216 0.0 0.0 0.00 0.00 0.00 75 1013.7
20260509151518 16 236 0.0 1.6 0.00 0.00 0.00 76 1013.6
20260509150020 16 294 0.0 1.6 0.00 0.00 0.00 78 1013.7
20260509144518 16 298 0.0 1.6 0.00 0.00 0.00 79 1013.8
20260509143019 15 244 0.0 0.0 0.00 0.00 0.00 81 1013.7
20260509141524 14 240 0.0 0.0 0.00 0.00 0.00 83 1013.6
20260509140018 13 217 0.0 0.0 0.00 0.00 0.00 86 1013.6
20260509134533 12 269 0.0 0.0 0.00 0.00 0.00 88 1013.6
20260509133035 12 270 0.0 0.0 0.00 0.00 0.00 90 1013.6
20260509131533 12 271 0.0 0.0 0.00 0.00 0.00 89 1013.4
20260509130034 12 273 0.0 0.0 0.00 0.00 0.00 90 1013.4
20260509124552 11 273 0.0 0.0 0.00 0.00 0.00 90 1013.2
20260509123048 11 273 0.0 0.0 0.00 0.00 0.00 91 1013.1
20260509121550 11 273 0.0 0.0 0.00 0.00 0.00 92 1013.1
20260509120050 11 273 0.0 0.0 0.00 0.00 0.00 91 1013.2
20260509114602 11 273 0.0 0.0 0.00 0.00 0.00 91 1013.2
20260509113102 12 250 0.0 0.0 0.00 0.00 0.00 90 1013.1
20260509111603 12 250 0.0 0.0 0.00 0.00 0.00 89 1013.1
20260509104504 12 198 0.0 0.0 0.00 0.00 0.00 88 1013.0
20260509103004 12 228 0.0 0.0 0.00 0.00 0.00 88 1013.0
20260509101505 13 232 0.0 0.0 0.00 0.00 0.00 88 1013.2
20260509100002 13 227 0.0 0.0 0.00 0.00 0.00 87 1013.2
20260509094517 13 225 0.0 0.0 0.00 0.00 0.00 87 1013.2
20260509093017 13 225 0.0 0.0 0.00 0.00 0.00 88 1013.2
20260509091519 13 224 0.0 0.0 0.00 0.00 0.00 88 1013.3
20260509090028 14 224 0.0 0.0 0.00 0.00 0.00 87 1013.3
20260509084527 13 241 0.0 0.0 0.00 0.00 0.00 88 1013.4
20260509083032 13 241 0.0 0.0 0.00 0.00 0.00 88 1013.5
20260509081531 14 241 0.0 0.0 0.00 0.00 0.00 86 1013.6
20260509080035 14 241 0.0 0.0 0.00 0.00 0.00 86 1013.6
20260509074536 14 241 0.0 0.0 0.00 0.00 0.00 86 1013.7
20260509073103 14 241 0.0 0.0 0.00 0.00 0.00 86 1013.7
20260509071555 14 241 0.0 0.0 0.00 0.00 0.00 86 1013.5
20260509070048 15 235 0.0 0.0 0.00 0.00 0.00 86 1013.4
20260509064546 15 238 0.0 0.0 0.00 0.00 0.00 85 1013.5
20260509063105 16 235 0.0 0.0 0.00 0.00 0.00 84 1013.5
20260509061601 16 233 0.0 0.0 0.00 0.00 0.00 84 1013.6
20260509060118 16 179 0.0 0.0 0.00 0.00 0.00 84 1013.6
20260509054601 17 256 0.0 0.0 0.00 0.00 0.00 82 1013.5
20260509053118 17 223 0.0 0.0 0.00 0.00 0.00 80 1013.5
20260509051613 17 328 0.0 0.0 0.00 0.00 0.00 80 1013.4
20260509050107 17 328 0.0 0.0 0.00 0.00 0.00 78 1013.4
20260509044608 18 327 0.0 0.0 0.00 0.00 0.00 78 1013.3
20260509043101 19 327 0.0 0.0 0.00 0.00 0.00 77 1013.2
20260509041601 20 328 0.0 0.0 0.00 0.00 0.00 74 1013.1
20260509040110 20 336 0.0 1.6 0.00 0.00 0.00 72 1012.8
20260509034605 20 337 0.0 0.0 0.00 0.00 0.00 72 1012.7
20260509033134 21 319 0.0 0.0 0.00 0.00 0.00 69 1012.7
20260509031600 22 322 0.0 1.6 0.00 0.00 0.00 66 1012.7
20260509030100 23 307 0.0 0.0 0.00 0.00 0.00 62 1012.6
20260509024608 25 307 0.0 1.6 0.00 0.00 0.00 61 1012.4
20260509023100 25 292 0.0 4.8 0.00 0.00 0.00 58 1012.3
20260509021600 27 309 0.0 3.2 0.00 0.00 0.00 55 1012.3
20260509020112 27 312 0.0 4.8 0.00 0.00 0.00 52 1012.1
20260509014615 27 319 0.0 4.8 0.00 0.00 0.00 51 1012.4
20260509013115 28 335 0.0 6.4 0.00 0.00 0.00 49 1012.4
20260509011616 28 344 0.0 6.4 0.00 0.00 0.00 49 1012.4
20260509010115 30 351 0.0 3.2 0.00 0.00 0.00 47 1012.4
20260509004614 30 319 0.0 1.6 0.00 0.00 0.00 44 1012.5
20260509003016 30 330 0.0 4.8 0.00 0.00 0.00 39 1012.6
20260509001514 30 292 0.0 0.0 0.00 0.00 0.00 40 1012.8
20260509000014 30 356 0.0 4.8 0.00 0.00 0.00 40 1012.8
20260508234514 30 305 0.0 0.0 0.00 0.00 0.00 41 1013.0
20260508233014 30 350 0.0 0.0 0.00 0.00 0.00 44 1013.2
20260508231514 29 353 0.0 1.6 0.00 0.00 0.00 42 1013.3
20260508230046 28 259 0.0 0.0 0.00 0.00 0.00 44 1013.5
20260508224559 28 235 0.0 3.2 0.00 0.00 0.00 46 1013.7
20260508223059 28 16 0.0 0.0 0.00 0.00 0.00 46 1014.0
20260508221614 27 22 0.0 6.4 0.00 0.00 0.00 47 1014.3
20260508220113 27 65 0.0 6.4 0.00 0.00 0.00 47 1014.4
20260508214559 27 46 0.0 1.6 0.00 0.00 0.00 48 1014.8
20260508213101 27 350 0.0 1.6 0.00 0.00 0.00 49 1015.0
20260508211514 26 24 0.0 4.8 0.00 0.00 0.00 49 1015.1
20260508210020 26 359 0.0 1.6 0.00 0.00 0.00 51 1015.4
20260508204509 26 319 0.0 3.2 0.00 0.00 0.00 53 1015.5
20260508203008 25 307 0.0 0.0 0.00 0.00 0.00 55 1015.6
20260508201608 25 4 0.0 3.2 0.00 0.00 0.00 53 1015.7
20260508200108 25 25 1.6 6.4 0.00 0.00 0.00 55 1016.0
20260508194609 24 150 0.0 3.2 0.00 0.00 0.00 58 1016.0
20260508193121 23 356 0.0 0.0 0.00 0.00 0.00 57 1016.2
20260508191613 23 342 0.0 1.6 0.00 0.00 0.00 57 1016.3
20260508190115 22 302 0.0 3.2 0.00 0.00 0.00 61 1016.5
20260508184618 22 335 0.0 0.0 0.00 0.00 0.00 63 1016.6
20260508183107 21 276 0.0 1.6 0.00 0.00 0.00 67 1016.7
20260508181608 21 217 0.0 1.6 0.00 0.00 0.00 68 1016.8
20260508180008 20 252 0.0 1.6 0.00 0.00 0.00 71 1016.7
20260508174509 18 187 0.0 1.6 0.00 0.00 0.00 74 1016.9
20260508173022 17 346 0.0 0.0 0.00 0.00 0.00 77 1017.0